NapervilleWeather.com

Find the Weather for any City, State  
or Zipcode, or Country:

Naperville, IL Weather
Local Radar

Local Radar

Graphs, Details
Graphs and Gauges
Detailed Weather
Detailed Reports
Ajax Version (old)
Davis Summary
Davis Current Weather Graphs
Davis 24 Hour Weather History
Cumulus

CW7164 Data

Weather Underground
www.awekas.at
Automatic Weather Map System
Latest Naperville, Illinois, weather
Weather For You
Maps
Temperature
Heat Index
Windchill
Humidity
Radar
Dew Point
Wind
Visibility
Visible Satellite
Satellite
Fronts
Snow Depth
Jet Stream
Flight Rules
Forecast Maps
Temperature Forecast
Maximum Temperature Forecast
Minimum Temperature Forecast
Dewpoint Forecast
Prevalent Weather
12Hr Probability of Precip.
Sky Cover
Health Maps
UV Forecast
Air Quality
Peak Air Quality Index
Weather Station
Davis Instruments Vantage Pro2
Current Conditions [Select Refresh to Update]

Updated: 10:03am on 7/5/15

(location)
Currently:
77.9°F

Clear
haze

High: 78.1 °F< 
(9:49am
Low: 59.9 °F 
(5:59am)
Wind: NW 0 mph
Calm
Gust: 0 mph
Today's High Wind: 0 mph (12:00am)
Humidity: 62%
Pressure: 30.08 in  (Steady
Pressure Rate: -0.001 in/hr
Dew Point: 63.8°F
Wind Chill: 77.9 °F
Heat Index (feels like): 79.9 °F
Comfort Level: Comfortable
Temperature Rate:  4.68°F/hr
 
5 Day Forecast
 
Sun Mon Tue Wed Thu
Clear Clear Clear Clear Clear
Partly Cloudy Mostly Cloudy Chance T-storms Mostly Cloudy Chance T-storms
87 88 76 74 78
64 67 57 58 63

Records and Normals
 
Temperature Forecast Normal Record
High 87 85 99
(2012)
Low 64 63 50
(1997)
 
 
Weather Advisories
No Warnings
Full Advisory Text...
Weather Map

Web Cam

Almanac
 
Sunrise:  
5:24am
Moonrise: 
10:57pm

Moon Phase:
86%

Sunset: 
8:31pm
Moonset:  
9:32am
 Star Chart...
Rainfall Totals
Hourly Rain 0.00 in
Daily Rain: 0.00 in
Monthly Rain: 0.00 in
Yearly Rain: 16.86 in
Normal Rain, month to date: 0.00 in
Normal Rain, year to date: 19.00 in
Local Weather Exchange Network
Station ID City 
(Click for Map Location)
Neighborhood 
(Click for History)
Last Update (Date & Time) Temperature
 ()
Dew
Point ()
Humidity 
(%)
Wind 
(mph)
from the Wind Gust 
(mph) 
Pressure(in) Hourly
Rain(in)
KILWARRE5 Warrenville Briergate Drive 07/05 09:42:35 73.2 64.0 73 0 North 0 30.13 0.00
KILNAPER15 Naperville Indian Hill Near Jefferson JHS 07/05 09:45:00 75.9 64.0 67 3 WSW 3 30.04 0.00
KILNAPER21 Naperville Saybrook 07/05 09:30:16 76.8 65.0 68 0 NW 3 30.07 0.00
KILNAPER33 Naperville Downtown 07/05 09:42:47 72.0 67.0 85 0 North 0 30.00 0.00
KILNAPER28 Naperville Pawnee Lane 07/05 09:42:18 76.8 65.0 67 0 North 0 30.16 0.00
KILNAPER25 Naperville brushhill-w 07/05 09:30:04 73.8 65.0 74 0 WSW 0 30.04 0.00
KILNAPER24 Naperville Brush Hill 07/05 09:41:49 76.1 66.0 70 0 SW 2 30.00 0.00
KILNAPER19 Naperville Brookdale Lakes 07/05 09:45:04 78.7 66.0 66 0 WNW 3 30.05 0.00
KILNAPER7 Naperville NapervilleWeather.com Near Ogden and Naper Blvd 07/05 09:45:04 78.1 64.0 63 0 NW 0 30.08 0.00
KILWARRE2 Warrenville Warrenville Neighborhood Weather 07/05 09:42:19 76.7 66.0 70 0 NW 0 30.03 0.00
KILNAPER42 Naperville Savannah Circle 07/05 09:42:55 72.7 65.0 77 0 North 0 30.14 0.00
KILNAPER60 Naperville Longwood 07/05 09:44:45 75.6 64.0 67 0 WNW 1 30.08 0.00
KILNAPER31 Naperville Savannah Circle 07/05 09:42:25 68.5 52.0 56 0 North 0 29.92 0.00
KILNAPER38 Naperville East Highlands 07/05 09:45:02 78.3 65.0 64 0 WSW 0 30.28 0.00
KILNAPER23 Naperville Naper Blvd at BNSF RR 07/05 09:45:05 77.2 66.0 69 0 SW 2 30.06 0.00
KILNAPER30 Naperville Cypress Drive 07/05 09:42:21 76.5 66.0 69 0 North 0 29.92 0.00
KILLISLE10 Lisle Maple Avenue 07/05 09:42:29 73.0 65.0 75 0 North 0 30.14 0.00
KILNAPER46 Naperville Hilton Head Drive 07/05 09:43:03 89.6 73.0 57 0 North 0 30.12 0.00
KILLISLE9 Lisle Park Meadow Drive 07/05 09:42:17 72.5 64.0 75 0 North 0 30.11 0.00
KILWARRE6 Warrenville Summer Lakes 07/05 09:38:49 79.6 66.0 63 0 WSW 1 30.06 0.00
KILNAPER9 Naperville 75th St. / Modaff Area 07/05 09:45:03 77.8 67.0 70 0 ESE 2 30.05 0.00
KILLISLE7 Lisle Beau Monde Drive 07/05 09:42:05 87.3 68.0 53 0 North 0 30.15 0.00
KILWHEAT15 Wheaton Schubert Court 07/05 09:43:02 77.9 68.0 70 0 North 0 30.01 0.00
KILWHEAT11 Wheaton Wheaton SW Orth Ct 07/05 09:45:03 76.5 67.0 72 0 NNW 1 30.20 0.00
KILLOMBA6 Wheaton Danada West 07/05 09:44:22 76.0 64.0 66 0 SSW 0 30.02 0.00
KILAUROR31 Aurora Downing Court 07/05 09:43:02 70.7 66.0 86 0 North 0 30.17 0.00
KILAUROR27 Aurora Stonehaven 07/05 09:38:17 85.8 63.0 47 1 West 0 29.90 0.00
KILNAPER35 Naperville Nutmeg Lane 07/05 09:42:31 74.3 67.0 77 0 North 0 30.15 0.00
KILNAPER59 Naperville Naperville/Ranchview 07/05 09:38:36 76.1 64.0 66 0 NE 0 30.03 0.00
KILNAPER61 Naperville Modaff Road 07/05 09:42:50 77.5 69.0 75 0 North 0 30.17 0.00
KILNAPER16 Naperville SE Naperville / NE Clow Arpt 07/05 09:44:58 78.7 66.0 66 2 West 4 30.07 0.00
KILNAPER51 Naperville Glouceston Lane 07/05 09:42:08 71.8 65.0 80 0 North 0 29.92 0.00
KILNAPER22 Naperville Willow Ridge 07/05 09:38:46 76.3 69.0 79 0 West 0 29.89 0.00
KILNAPER49 Naperville Sutton Circle 07/05 09:42:25 71.6 63.0 74 0 North 0 30.10 0.00
KILWHEAT5 Wheaton N9ABF - West Wheaton 07/05 09:30:20 75.7 64.0 66 0 WSW 1 30.06 0.00
KILGLENE9 Glen Ellyn Valley View 07/05 09:37:02 86.9 67.0 52 3 South 0 29.95 0.00
KDPA Chicago DuPage Official Station 07/05 08:52:00 71.0 62.0 73 4 South --- 30.08 ---
KLOT Romeoville Official Station 07/05 09:35:00 75.0 61.0 63 4 SW --- 30.09 ---
KARR Aurora Official Station 07/05 08:52:00 72.0 62.0 71 0 North --- 30.09 ---
KJOT Joliet Official Station 07/05 09:35:00 76.0 66.0 71 0 North --- 30.09 ---
Full Advisory Text
No Warnings

Ambient Weather and Weather Underground
 Never base important decisions on this or any weather information obtained from the Internet
Updated Automatically by Ambient Weather's Virtual Weather Station  V14.01